Accueil
METAR-TAF:

METAR-TAF

Aéroports :

Aéroport d'Angers-Loire

Angers, France

latitude: 47-33-37N, longitude: 000-18-44W, altitude: 59 m

Observation

Le bulletin a été fait il y a 31 minutes, à 22:30 UTC
Vent 3 kt de nord/nord-ouest
Température 14°C
Humidité 72%
Pression 1024 hPa
Visibilité 10 km ou plus
pas de nuages en-dessous de 1500 mètres et pas de cumulonimbus.

METAR: LFJR 172230Z AUTO 34003KT CAVOK 14/09 Q1024

Heure: 01:01 (23:01 UTC)

Prévision

Le bulletin a été fait il y a 12 heures et 1 minutes, à 11:00 UTC
Prévision valable du 17 à 12 UTC au 17 à 21 UTC
Vent 6 kt de nord/nord-ouest
Visibilité 10 km ou plus
pas de nuages en-dessous de 1500 mètres et pas de cumulonimbus.

TAF: LFJR 171100Z 1712/1721 34006KT CAVOK

Observations et prévisions météorologiques de plus de 4000 aéroports (messages METAR et TAF).

Les stations disponibles sont représentées par des disques jaunes et rouges sur la carte.

Passer la souris dessus pour voir le nom de la station.

Cliquer dessus pour voir les observations et prévisions météorologiques.

Pour changer de carte: cliquez sur les boutons verts avec une croix noire pour zoomer, sur le bouton vert avec un tiret pour effectuer un zoom arrière, ou sur les flèches vertes pour les cartes adjacentes.


METAR-TAF: